Date String (YYYY-MM-DD hh:mm:ss) UTC,Instrument flags,Ambient pressure (hPa),Sample flow (lpm),Bypass flow (lpm),Sample temperature (°C),Ambient temperature (°C),ASC tube jacket temperature (°C),LED temperature (°C),Box temperature (°C),Sample RH (%),Span deviation,Mass concentration (μg/m³),Mass concentration (μg/m³),Mass concentration (μg/m³)
DateTimeUTC,F1_M11,P_M11,Q1_M11,Q2_M11,T1_M11,T2_M11,T3_M11,T4_M11,T5_M11,U1_M11,ZSPAN_M11,X0_M11,X2_M11,X1_M11
2021-09-12 07:00:00,,0830.8,4.99,0.00,29.6,28.6,00.0,38.6,31.5,22.3,0001.9,0015.55,0006.94,0005.77
2021-09-12 07:01:00,,0830.8,5.00,0.00,29.6,28.6,00.0,38.6,31.5,22.3,0001.9,0015.50,0006.95,0005.77
2021-09-12 07:02:00,,0830.8,5.00,0.00,29.6,28.7,00.0,38.6,31.5,22.4,0001.8,0015.70,0006.97,0005.77
2021-09-12 07:03:00,,0830.7,5.01,0.00,29.7,28.8,00.0,38.6,31.6,22.3,0002.2,0015.77,0006.98,0005.76
2021-09-12 07:04:00,,0830.7,5.00,0.00,29.7,28.8,00.0,38.7,31.6,22.3,0002.3,0014.72,0006.98,0005.73
2021-09-12 07:05:00,,0830.7,5.01,0.00,29.7,28.9,00.0,38.7,31.6,22.2,0002.3,0014.57,0006.92,0005.71
2021-09-12 07:06:00,,0830.6,5.00,0.00,29.7,27.8,00.0,38.7,31.3,22.3,0002.5,0015.40,0006.90,0005.70
2021-09-12 07:07:00,,0830.6,5.00,0.00,29.6,26.2,00.0,38.7,30.9,22.5,0002.2,0015.75,0006.87,0005.68
2021-09-12 07:08:00,,0830.6,5.00,0.00,29.5,26.2,00.0,38.7,30.9,22.6,0001.9,0016.04,0006.86,0005.64
2021-09-12 07:09:00,,0830.7,4.99,0.00,29.4,26.6,00.0,38.6,30.9,22.7,0002.2,0015.84,0006.85,0005.62
2021-09-12 07:10:00,,0830.6,5.01,0.00,29.4,27.0,00.0,38.6,31.0,22.9,0002.1,0015.05,0006.84,0005.61
2021-09-12 07:11:00,,0830.6,4.99,0.00,29.4,27.3,00.0,38.6,31.0,22.8,0001.8,0015.41,0006.92,0005.61
2021-09-12 07:12:00,,0830.6,5.01,0.00,29.4,27.6,00.0,38.5,31.1,22.6,0001.9,0015.82,0006.98,0005.60
2021-09-12 07:13:00,,0830.6,5.00,0.00,29.4,27.9,00.0,38.5,31.1,22.7,0002.2,0015.62,0007.00,0005.60
2021-09-12 07:14:00,,0830.7,5.01,0.00,29.4,28.0,00.0,38.5,31.2,22.7,0001.7,0015.35,0007.00,0005.60
2021-09-12 07:15:00,,0830.8,5.00,0.00,29.4,28.2,00.0,38.5,31.3,22.6,0001.8,0015.39,0007.07,0005.61
2021-09-12 07:16:00,,0830.7,4.99,0.00,29.5,28.3,00.0,38.5,31.3,22.6,0001.6,0015.45,0007.07,0005.60
2021-09-12 07:17:00,,0830.8,4.99,0.00,29.5,28.4,00.0,38.5,31.3,22.6,0001.4,0014.69,0007.05,0005.61
2021-09-12 07:18:00,,0830.7,5.01,0.00,29.5,28.5,00.0,38.6,31.4,22.6,0001.8,0014.82,0007.10,0005.63
2021-09-12 07:19:00,,0830.8,4.99,0.00,29.6,28.6,00.0,38.6,31.4,22.5,0002.2,0014.55,0007.12,0005.68
2021-09-12 07:20:00,,0830.7,5.01,0.00,29.6,28.7,00.0,38.6,31.4,22.5,0002.2,0014.91,0007.16,0005.72
2021-09-12 07:21:00,,0830.8,4.99,0.00,29.6,28.8,00.0,38.6,31.4,22.4,0002.3,0015.27,0007.22,0005.75
2021-09-12 07:22:00,,0830.7,5.02,0.00,29.7,28.8,00.0,38.6,31.5,22.4,0002.3,0014.81,0007.21,0005.78
2021-09-12 07:23:00,,0830.7,4.99,0.00,29.7,28.9,00.0,38.7,31.5,22.4,0002.4,0015.19,0007.19,0005.81
2021-09-12 07:24:00,,0830.8,5.01,0.00,29.7,28.9,00.0,38.7,31.6,22.3,0002.6,0015.23,0007.14,0005.82
2021-09-12 07:25:00,,0830.8,5.01,0.00,29.8,28.9,00.0,38.7,31.6,22.2,0002.4,0015.38,0007.18,0005.84
2021-09-12 07:26:00,,0830.7,5.00,0.00,29.8,28.3,00.0,38.7,31.5,22.1,0002.0,0015.65,0007.12,0005.87
2021-09-12 07:27:00,,0830.7,5.00,0.00,29.6,26.5,00.0,38.7,31.0,22.0,0001.9,0015.90,0007.19,0005.91
2021-09-12 07:28:00,,0830.6,5.00,0.00,29.5,26.2,00.0,38.7,30.9,21.7,0001.7,0015.99,0007.29,0005.96
2021-09-12 07:29:00,,0830.6,5.01,0.00,29.4,26.5,00.0,38.7,30.9,21.8,0001.2,0015.27,0007.29,0005.99
2021-09-12 07:30:00,,0830.6,4.99,0.00,29.4,26.9,00.0,38.6,31.0,21.8,0001.1,0015.18,0007.32,0006.01
2021-09-12 07:31:00,,0830.6,5.00,0.00,29.4,27.2,00.0,38.6,31.0,21.9,0001.2,0014.68,0007.35,0006.04
2021-09-12 07:32:00,,0830.6,5.00,0.00,29.4,27.5,00.0,38.6,31.1,21.9,0001.0,0015.15,0007.34,0006.07
2021-09-12 07:33:00,,0830.6,5.01,0.00,29.4,27.7,00.0,38.6,31.2,22.0,0000.8,0015.27,0007.42,0006.12
2021-09-12 07:34:00,,0830.6,4.99,0.00,29.4,27.9,00.0,38.6,31.2,22.1,0000.6,0015.01,0007.51,0006.17
2021-09-12 07:35:00,,0830.6,5.00,0.00,29.5,28.1,00.0,38.6,31.3,22.0,0000.2,0015.76,0007.63,0006.20
2021-09-12 07:36:00,,0830.6,5.01,0.00,29.5,28.2,00.0,38.6,31.3,22.0,0000.2,0015.97,0007.68,0006.23
2021-09-12 07:37:00,,0830.6,4.99,0.00,29.5,28.3,00.0,38.6,31.3,22.0,0000.5,0016.14,0007.74,0006.26
2021-09-12 07:38:00,,0830.6,4.99,0.00,29.5,28.4,00.0,38.6,31.3,21.9,0000.6,0016.22,0007.72,0006.27
2021-09-12 07:39:00,,0830.6,5.01,0.00,29.6,28.6,00.0,38.6,31.4,21.8,0000.4,0016.11,0007.68,0006.29
2021-09-12 07:40:00,,0830.6,5.00,0.00,29.6,28.7,00.0,38.6,31.4,21.7,0000.6,0016.33,0007.72,0006.31
2021-09-12 07:41:00,,0830.6,5.00,0.00,29.6,28.7,00.0,38.6,31.5,21.7,0000.5,0016.63,0007.73,0006.32
2021-09-12 07:42:00,,0830.6,5.01,0.00,29.7,28.8,00.0,38.6,31.5,21.6,0000.6,0017.19,0007.72,0006.32
2021-09-12 07:43:00,,0830.6,5.00,0.00,29.7,28.9,00.0,38.7,31.5,21.7,0001.0,0017.18,0007.77,0006.35
2021-09-12 07:44:00,,0830.5,5.00,0.00,29.7,28.9,00.0,38.7,31.6,21.7,0001.4,0016.94,0007.75,0006.35
2021-09-12 07:45:00,,0830.6,5.01,0.00,29.8,28.9,00.0,38.7,31.6,21.8,0001.4,0017.33,0007.80,0006.36
2021-09-12 07:46:00,,0830.6,5.01,0.00,29.8,28.9,00.0,38.7,31.6,21.7,0001.4,0016.08,0007.79,0006.38
2021-09-12 07:47:00,,0830.6,4.99,0.00,29.8,28.9,00.0,38.8,31.6,21.6,0001.4,0016.70,0007.84,0006.40
2021-09-12 07:48:00,,0830.6,5.01,0.00,29.8,28.1,00.0,38.8,31.4,21.6,0001.2,0016.77,0007.86,0006.41
2021-09-12 07:49:00,,0830.6,5.00,0.00,29.6,26.4,00.0,38.7,31.0,21.7,0001.1,0016.23,0007.87,0006.41
2021-09-12 07:50:00,,0830.5,5.00,0.00,29.5,26.2,00.0,38.7,30.9,21.7,0001.5,0016.33,0007.88,0006.42
2021-09-12 07:51:00,,0830.5,5.01,0.00,29.4,26.5,00.0,38.7,30.9,21.8,0001.7,0017.07,0007.88,0006.42
2021-09-12 07:52:00,,0830.5,5.01,0.00,29.4,26.9,00.0,38.6,30.9,21.9,0001.7,0017.99,0007.91,0006.41
2021-09-12 07:53:00,,0830.5,4.98,0.00,29.4,27.2,00.0,38.6,31.0,21.9,0001.5,0017.89,0007.87,0006.39
2021-09-12 07:54:00,,0830.6,5.01,0.00,29.4,27.5,00.0,38.6,31.1,21.6,0001.2,0017.57,0007.84,0006.38
2021-09-12 07:55:00,,0830.5,5.01,0.00,29.4,27.7,00.0,38.6,31.1,21.6,0001.0,0017.21,0007.77,0006.34
2021-09-12 07:56:00,,0830.5,4.99,0.00,29.4,27.9,00.0,38.6,31.2,21.6,0001.2,0016.60,0007.63,0006.30
2021-09-12 07:57:00,,0830.5,5.00,0.00,29.4,28.0,00.0,38.6,31.2,21.7,0001.1,0017.12,0007.59,0006.25
2021-09-12 07:58:00,,0830.5,5.00,0.00,29.4,28.1,00.0,38.6,31.2,21.7,0001.3,0016.74,0007.53,0006.21
2021-09-12 07:59:00,,0830.5,5.00,0.00,29.5,28.2,00.0,38.6,31.3,21.8,0001.5,0016.38,0007.53,0006.17
